EST,Max TemperatureF,Mean TemperatureF,Min TemperatureF,Max Dew PointF,MeanDew PointF,Min DewpointF,Max Humidity, Mean Humidity, Min Humidity, Max Sea Level PressureIn, Mean Sea Level PressureIn, Min Sea Level PressureIn, Max VisibilityMiles, Mean VisibilityMiles, Min VisibilityMiles, Max Wind SpeedMPH, Mean Wind SpeedMPH, Max Gust SpeedMPH,PrecipitationIn, CloudCover, Events, WindDirDegrees
2012-11-1,54,48,41,37,28,17,82,54,26,29.91,29.86,29.82,10,10,10,21,9,26,0.00,6,,257
2012-11-2,60,49,37,37,29,20,64,48,32,30.01,29.90,29.86,10,10,10,17,6,23,0.00,5,,269
2012-11-3,61,45,29,37,31,27,92,62,32,30.15,30.06,29.98,10,8,0,8,0,10,T,3,Fog,40
2012-11-4,56,50,44,44,40,35,92,74,55,30.05,29.99,29.94,10,10,10,8,2,12,0.01,7,Rain,12
2012-11-5,54,42,30,36,30,27,92,64,35,30.12,30.06,30.00,10,10,8,8,1,12,0.00,2,,297
2012-11-6,44,38,31,37,33,28,85,76,67,30.04,29.98,29.91,10,10,10,9,1,14,T,7,Rain,167
2012-11-7,48,43,38,41,38,33,100,88,76,30.03,29.91,29.87,10,7,2,8,2,9,0.04,8,Rain,284
2012-11-8,54,42,29,39,33,28,100,72,44,30.22,30.16,30.04,10,4,0,10,1,14,0.00,2,Fog,292
2012-11-9,61,44,26,37,30,25,100,68,35,30.32,30.25,30.20,10,7,0,8,1,10,0.00,2,Fog,250
2012-11-10,69,50,30,35,32,28,92,60,27,30.38,30.30,30.25,10,10,9,5,0,7,0.00,1,,10
2012-11-11,73,52,31,46,37,30,89,56,22,30.40,30.31,30.25,10,10,10,15,3,22,0.00,4,,151
2012-11-12,68,55,42,56,49,38,93,71,49,30.36,30.21,30.06,10,7,2,20,7,25,0.33,7,Rain,234
2012-11-13,49,40,30,39,28,24,89,64,39,30.43,30.38,30.32,10,10,10,8,2,12,0.02,2,Rain,3
2012-11-14,53,39,24,33,27,21,92,65,38,30.43,30.35,30.27,10,10,10,8,1,12,0.00,4,,70
2012-11-15,56,43,30,33,30,27,89,64,38,30.32,30.26,30.21,10,10,10,7,1,12,0.00,2,,77
2012-11-16,57,42,26,34,28,24,100,66,32,30.38,30.32,30.27,10,10,8,8,1,10,0.00,2,Fog,10
2012-11-17,62,45,27,31,26,21,92,58,23,30.47,30.41,30.35,10,10,10,10,2,14,0.00,0,,59
2012-11-18,61,45,29,40,31,21,85,65,44,30.48,30.39,30.33,10,10,10,10,3,18,0.00,0,,49
2012-11-19,61,46,31,43,37,30,92,72,51,30.35,30.27,30.18,10,10,10,6,1,9,0.00,1,,230
2012-11-20,62,49,35,42,35,31,100,67,33,30.19,30.13,30.05,10,9,6,8,0,10,0.00,3,,-1
2012-11-21,65,48,31,37,33,30,100,65,30,30.20,30.16,30.10,10,10,6,9,1,13,0.00,1,,12
2012-11-22,64,46,28,34,30,25,92,58,23,30.27,30.20,30.14,10,10,8,6,0,8,0.00,0,,330
2012-11-23,60,45,29,45,35,27,92,75,57,30.14,30.07,29.97,10,10,10,23,5,26,T,4,Rain,265
2012-11-24,42,32,22,27,21,18,74,57,39,30.16,30.10,30.03,10,10,10,15,7,22,0.00,3,,287
2012-11-25,51,35,19,24,17,10,92,56,20,30.17,30.10,30.02,10,10,10,15,3,20,0.00,1,,238
2012-11-26,57,40,23,39,25,18,81,55,28,30.23,30.15,30.10,10,10,7,7,0,9,0.04,5,Rain,350
2012-11-27,46,42,38,43,39,32,96,85,73,30.27,30.17,30.10,10,8,2,9,2,14,0.10,8,Rain,3
2012-11-28,49,37,25,34,29,24,89,66,42,30.40,30.34,30.25,10,10,8,12,3,17,0.00,4,,278
2012-11-29,54,38,21,30,25,20,92,62,32,30.45,30.38,30.31,10,9,7,6,0,8,0.00,0,,285
2012-11-30,58,42,25,36,30,22,96,70,43,30.43,30.33,30.25,10,10,8,12,1,15,0.00,3,,235